Location: Passau
(48.5721°N, 13.4363°E)
Time: 21:59:42
(UTC+01:00)

ISS - Pass Details

Date: 11 November 2017
Orbit: 402 x 407 km, 51.6° (Epoch: 21 November)

Event Time Altitude Azimuth Distance (km) Brightness Sun altitude
Exits shadow 05:09:52 51° 3° (N) 512 -3.4 -19.6°
Maximum altitude 05:09:56 52° 9° (N) 511 -3.4 -19.6°
Drops below altitude 10° 05:13:08 10° 87° (E) 1,456 0.2 -19.1°
Sets 05:15:15 0° 92° (E) 2,315 1.7 -18.7°
